星链-34922 (STARLINK-34922)

导读

STARLINK-34922是美国SpaceX星链星座的卫星,于2025年8月22日发射升空,属于Starlink Gen2组别,星链是全球低轨卫星互联网星座项目,卫星主要部署在近地轨道运行,承担为全球提供高速互联网接入服务任务,尤其覆盖偏远和网络基础设施匮乏地区。

基本信息
目录编号:
65273
目录名称:
STARLINK-34922
国际标识:
2025-184A
轨道中心:
EARTH
卫星名称:
星链-34922
卫星全名:
星链-34922 (STARLINK-34922)
卫星状态:
在轨 (已飞行378 天)
发射日期:
2025-08-22 UTC
国别 :
美国 (US)
星等 :
--
轨道信息
数据来源 国际轨道数据
星历时间: 2026-09-03T22:04:59+0800
13小时前
查看轨道信息
半长轴: 6843.691km
偏心率: 0.0001225
轨道倾角: 97.281°
近地点辐角 92.666°
升交点赤经 294.816°
平近点角 267.472°
近地点: 464.715km
远地点: 466.393km
周期: 93.906分钟
每日圈数: 15.334416
详细信息
固有亮度:
5
最大亮度:
2.5
卫星平台:
Starlink V1.0
覆盖范围:
全球
运营商:
太空探索技术公司
运营商所在国:
美国
制造商(研发单位):
太空探索技术公司
制造商所在国:
美国
使用方式:
暂无
卫星简介
Starlink 计划是 SpaceX 推出的全球卫星互联网项目,通过发射低轨道卫星,为全球尤其是偏远地区提供高速、低延迟的互联网服务。自 2019 年起,Starlink 已部署数千颗卫星,旨在缩小全球数字鸿沟,推动互联网普及。该项目还为军事、航空等行业提供通信支持,带来广泛经济效益。
2D轨道图
3D轨道图
轨道高度分析图
轨道倾角分析图
轨道综合分析图
查看轨道综合分析图
交会数据列表
事件ID 空间交会对象 最接近时刻(TCA) 交会距离 交会风险概率(CRP) 交会风险指数(CRI) 操作
CDM_260905-060206-527306-538221
2026-09-05T
06:02:56+0000
1.939 km
极远距离
3.147937E-6 低风险 0.45
CDM_260905-113106-527306-538221
2026-09-05T
11:31:52+0000
2.136 km
极远距离
2.468448E-6 低风险 0.43
CDM_260905-073606-527306-538221
2026-09-05T
07:36:55+0000
2.666 km
极远距离
1.59629E-6 低风险 0.39
CDM_260905-130506-527306-538221
2026-09-05T
13:05:51+0000
2.785 km
极远距离
1.495604E-6 低风险 0.38
CDM_260827-181104-865306-527321
2026-08-27T
18:11:19+0000
2.822 km
极远距离
1.315051E-6 低风险 0.37